Simultaneous Nadir Overpasses (SNOs) Predictions

Prediction of SNOs between LANDSAT-8 and NOAA-19 Satellite Orbit:

Table of predicted SNOs for the next 14.0 days since TLE Epoch: 10/9/2018
Index Date (LANDSAT-8) Time (LANDSAT-8) Lat,Lon (LANDSAT-8) SZA (LANDSAT-8 ) Date (NOAA-19) Time (NOAA-19) Lat,Lon (NOAA-19) SZA (NOAA-19 ) Distance(km) Time Diff (sec)
1 10/11/2018 09:05:18 -78.05,-120.56 94.31 10/11/2018 09:05:08 -78.04,-120.57 94.32 1.04 10
2 10/11/2018 09:54:49 77.81, 46.01 85.41 10/11/2018 09:55:57 77.78, 48.12 85.56 49.54 68
3 10/13/2018 14:39:00 78.05, -23.96 86.54 10/13/2018 14:38:35 78.06, -23.98 86.54 1.13 25
4 10/13/2018 15:28:28 -78.02, 143.56 93.48 10/13/2018 15:29:39 -78.00, 143.58 93.48 2.76 71
5 10/15/2018 20:12:43 -78.07, 72.72 92.60 10/15/2018 20:12:11 -78.05, 72.76 92.63 3.12 32
6 10/15/2018 21:02:10 78.01,-119.93 87.34 10/15/2018 21:03:06 78.03,-119.87 87.38 2.70 56
7 10/18/2018 01:46:24 78.08, 169.35 88.25 10/18/2018 01:45:38 78.08, 169.28 88.23 1.69 46
8 10/18/2018 02:35:53 -78.02, -23.32 91.83 10/18/2018 02:36:42 -78.02, -23.15 91.80 3.87 49
9 10/20/2018 07:20:07 -78.08, -94.09 90.95 10/20/2018 07:19:14 -78.08, -94.04 90.96 1.28 53
10 10/20/2018 08:09:33 78.06, 73.44 89.03 10/20/2018 08:10:09 78.06, 73.36 89.04 1.94 36
11 10/22/2018 12:53:47 78.10, 2.59 89.88 10/22/2018 12:52:41 78.12, 2.47 89.87 3.28 66




NCC Satellite Simultaneous Nadir Overpasses (SNOs) Prediction Service
